Regional Weather Roundup
Issued by NWS

Home | Current Version | Previous Version | Graphics & Text | Print | Product List | Glossary Off
Versions: 1 2 3 4 5 6 7 8 9 10 11 12 13 14 15 16 17 18 19 20 21 22 23 24 25 26 27 28 29 30 31 32 33 34 35 36 37 38 39 40 41 42 43 44 45 46 47 48 49 50

000
ASUS43 KMPX 180110
RWRMN
WEATHER ROUNDUP FOR MINNESOTA
NATIONAL WEATHER SERVICE TWIN CITIES/CHANHASSEN MN
800 PM CDT FRI APR 17 2015


NOTE: "FAIR" INDICATES FEW OR NO CLOUDS BELOW 12,000 FEET WITH NO
SIGNIFICANT WEATHER AND/OR OBSTRUCTIONS TO VISIBILITY. N/A MEANS
CURRENT SKY AND/OR WEATHER CONDITIONS ARE NOT AVAILABLE.

MNZ060>063-068>070-180200-
   Twin Cities Metro

CITY           SKY/WX    TMP DP  RH WIND       PRES   REMARKS
TWIN CITIES    PTCLDY    68  27  21 NW9       30.01S
ST PAUL        PTCLDY    68  26  20 NW12      30.01S
CRYSTAL        CLEAR     69  27  20 NW6       30.01S
BLAINE         CLEAR     66  28  24 W5        30.02R
LAKEVILLE      PTCLDY    63  37  39 NW5       30.01S
EDEN PRAIRIE   CLEAR     69  27  20 N6        30.01S
SOUTH ST PAUL  PTCLDY    69  27  20 N7        30.00S
LAKE ELMO      FAIR      66  32  28 NW3       30.02S
$$
MNZ001>005-007-008-013>017-022>024-027-028-180200-
   Northwest Minnesota

CITY           SKY/WX    TMP DP  RH WIND       PRES   REMARKS
BEMIDJI        CLEAR     61  25  25 N10G18    30.03R
HALLOCK        CLEAR     57  27  30 NE18G25   30.08R
ROSEAU         CLEAR     55  28  35 N13       30.09R
WARROAD        CLEAR     55  30  38 N12G20    30.09R
THIEF RVR FALL CLEAR     61  23  23 N14       30.07R
CROOKSTON      CLEAR     61  18  18 N12       30.07R
FOSSTON        CLEAR     61  18  18 N10       30.06R
DETROIT LAKES  PTCLDY    68  23  18 W6        30.02S
MOORHEAD       PTCLDY    70  27  19 N21G29    30.02R
PARK RAPIDS    CLEAR     63  24  22 W8        30.00S
MAHNOMEN       FAIR      62  26  25 N20       30.03R
$$
MNZ006-009>011-018-025>026-180200-
   North Central Minnesota

CITY           SKY/WX    TMP DP  RH WIND       PRES   REMARKS
BAUDETTE       CLEAR     53  28  38 NW10      30.06R
FLAG ISLAND    CLEAR     50  32  50 NE10      30.08R
INTL FALLS     CLEAR     57  22  25 N14G23    30.03R
WASKISH        CLEAR     57  25  28 N9G22     30.06R
BIG FORK       CLEAR     63  25  23 N10G21    30.02R
LONGVILLE      CLEAR     63  25  23 CALM      30.00S
GRAND RAPIDS   CLEAR     66  23  19 W3        29.99S
ORR            CLEAR     61  21  21 NW3G17    29.99R
COOK           CLEAR     63  28  27 NW13G22   30.00R
WALKER         FAIR      64  30  27 N8G16     30.01R
$$
MNZ012-019>021-037-180200-
   Northeast Minnesota

CITY           SKY/WX    TMP DP  RH WIND       PRES   REMARKS
DULUTH         CLEAR     66  23  19 NW9       29.98S
ELY            CLEAR     63  25  23 N9G23     29.97R
HIBBING        CLEAR     64  23  21 W5        29.97S
EVELETH        CLEAR     64  23  20 W8        29.98S
DULUTH HARBOR  CLEAR     66  28  24 W16       29.97S
TWO HARBORS    CLEAR     68  34  28 W6        29.94S
SILVER BAY     CLEAR     66  21  18 CALM      29.94R
GRAND MARAIS     N/A     41  34  76 SW6       29.92S
G MARAIS ARPRT CLEAR     59  21  23 W6        29.93S
$$
MNZ029>031-032-039>041-046>048-054>057-064-180200-
   West Central Minnesota

CITY           SKY/WX    TMP DP  RH WIND       PRES   REMARKS
FERGUS FALLS   MOCLDY    66   9  10 NW5       30.03S
WHEATON        PTCLDY    64  25  22 CALM      30.05F
MORRIS         PTCLDY    64  21  19 NW5       30.04S
ALEXANDRIA     PTCLDY    65  21  18 CALM      30.05F
ELBOW LAKE     FAIR      64  20  18 W3        30.03S
WADENA         PTCLDY    63  25  23 SW5       30.02S
GLENWOOD       PTCLDY    63  21  20 NW5       30.05S
APPLETON       PTCLDY    64  16  15 W6        30.04S
BENSON         PTCLDY    64  12  13 CALM      30.04S
ORTONVILLE     PTCLDY    66  16  14 CALM      30.04S
MADISON        PTCLDY    64  12  13 N6        30.05S
WILLMAR        FAIR      63  25  23 N7        30.05S
$$
MNZ033>034-036-042>043-049>051-058-059-180200-
   Central Minnesota

CITY           SKY/WX    TMP DP  RH WIND       PRES   REMARKS
ST CLOUD       PTCLDY    62  27  26 NW8       30.02S
SAUK CENTRE    FAIR      64  25  23 CALM      30.04F
PAYNESVILLE    CLEAR     64  21  19 W5        30.05R
AITKIN         CLEAR     70  -2   6 W5        29.99S
PINE RIVER     PTCLDY    66  28  24 W3        30.03F
BRAINERD       PTCLDY    65  21  18 W5        30.01F
STAPLES        PTCLDY    63  19  19 CALM      30.02S
LONG PRAIRIE   FAIR      63  25  23 CALM      30.05S
LITTLE FALLS   PTCLDY    64  21  19 W3        30.04S
LITCHFIELD     PTCLDY    68  21  17 NW5       30.04S
BUFFALO        CLEAR     67  23  18 CALM      30.03S
MAPLE LAKE     CLEAR     65  33  29 NW3       30.03S
$$
MNZ037-044-045-052-053-180200-
   East Central Minnesota

CITY           SKY/WX    TMP DP  RH WIND       PRES   REMARKS
PRINCETON      PTCLDY    66  28  24 CALM      30.02S
MORA           PTCLDY    64  28  25 CALM      30.03R
CAMBRIDGE      PTCLDY    68  41  37 W3        30.00S
RUSH CITY      PTCLDY    64  29  26 CALM      30.02R
MOOSE LAKE     CLEAR     66  28  24 CALM      29.98R
HINCKLEY       FAIR      64  27  24 W3        30.01R
CLOQUET        CLEAR     64  14  14 W6        29.99S
MCGREGOR       CLEAR     66  23  19 NW3       30.01R
$$
MNZ071>073-080-081-089-090-097-098-180200-
   Southwest Minnesota

CITY           SKY/WX    TMP DP  RH WIND       PRES   REMARKS
MONTEVIDEO     CLEAR     66  19  16 N5        30.05S
GRANITE FALLS  CLEAR     66  19  16 NW6       30.05S
CANBY          CLEAR     66  17  15 N3        30.05F
MARSHALL       PTCLDY    66  16  14 N9        30.04S
REDWOOD FALLS  PTCLDY    70  23  17 N6        30.02S
OLIVIA         CLEAR     64  25  22 N7        30.03S
PIPESTONE      MOCLDY    66  23  19 NE6       30.04S
WINDOM         MOCLDY    66  28  24 N9        30.03S
WORTHINGTON    CLOUDY    68  34  28 N7        30.04S
JACKSON        CLOUDY    68  32  26 N3        30.03S
TRACY          PTCLDY    68  22  17 N6        30.04S
SLAYTON        MOCLDY    64  26  24 N7        30.05S
$$
MNZ065>067-074>077-082>085-091>093-180200-
   South Central Minnesota

CITY           SKY/WX    TMP DP  RH WIND       PRES   REMARKS
MANKATO        PTCLDY    70  37  30 N7        30.01S
NEW ULM        PTCLDY    66  28  24 NW7       30.02R
ST JAMES       MOCLDY    70  28  21 NW8       30.02S
FAIRMONT       CLOUDY    70  37  30 MISG      30.01F
GLENCOE        PTCLDY    69  32  25 N3        30.02R
FARIBAULT      PTCLDY    70  37  30 N3        30.02R
OWATONNA       MOCLDY    66  37  34 N7        30.01S
ALBERT LEA     MOCLDY    70  41  35 CALM      30.01S
$$
MNZ078>079-086>088-094>096-180200-
   Southeast Minnesota

CITY           SKY/WX    TMP DP  RH WIND       PRES   REMARKS
ROCHESTER      MOCLDY    65  45  48 NW8       30.01S
RED WING       PTCLDY    70  34  26 N5        29.99S
STANTON        PTCLDY    66  35  30 N7        30.00S
DODGE CENTER   MOCLDY    66  45  45 NW6       30.02R
WINONA         PTCLDY    70  45  40 NW3       29.98S
AUSTIN         MOCLDY    70  45  40 NW3       30.01S
PRESTON        PTCLDY    67  44  42 W6        30.01S
$$
ABBREVIATIONS USED IN REMARKS
   TC - TEMPERATURES IN CELSIUS
  WCI - WIND CHILL INDEX
   HX - HEAT INDEX
  VSB - VISIBILITY
$$



USA.gov is the U.S. government's official web portal to all federal, state and local government web resources and services.